Weather History for Agadir Al Massira, Morocco

Change the Weather History Date:

Saturday, January 11, 2014

  Actual Average Record
Temperature  
Mean Temperature 58 °F -  
Max Temperature 67 °F - - ()
Min Temperature 48 °F - - ()
Degree Days  
Heating Degree Days 8    
Growing Degree Days 8 (Base 50)    
Moisture  
Dew Point 51 °F    
Average Humidity 80    
Maximum Humidity 94    
Minimum Humidity 53    
Precipitation  
Precipitation 0.00 in - - ()
Sea Level Pressure  
Sea Level Pressure 30.06 in    
Wind  
Wind Speed 3 mph ()    
Max Wind Speed 9 mph    
Max Gust Speed -    
Visibility 5.8 miles    
Events Rain    
T = Trace of Precipitation, MM = Missing Value Source: Averaged Metar Reports

Daily Weather History Graph

Daily Weather History Graph

Search for Another Location

Airport:

Trip Planner

Search our weather history database for the weather conditions in past years. The results will help you decide how hot, cold, wet, or windy it might be!

Date:

Astronomy

Jan. 11, 2014 Rise Set
Actual Time 7:35 AM WET 5:55 PM WET
Civil Twilight 7:09 AM WET 6:22 PM WET
Nautical Twilight 6:39 AM WET 6:51 PM WET
Astronomical Twilight 6:10 AM WET 7:20 PM WET
Moon 2:27 PM WET (1/11) 3:31 AM WET (1/11)
Length of Visible Light 11h 12m
Length of Day
10h 20m
Waxing Gibbous, 81% of the Moon is Illuminated
Jan 11
Waxing Gibbous
Jan 16
Full
Jan 24
Last Quarter
Jan 30
New
Feb 6
First Quarter

Hourly Weather History & Observations

Time (WET) Temp. Dew Point Humidity Pressure Visibility Wind Dir Wind Speed Gust Speed Precip Events Conditions
12:00 AM 54 °F 52 °F 91% 30.02 in 5 mi East 8.1 mph - - Rain Light Rain
12:00 AM 53.6 °F 51.8 °F 94% 30.01 in 5.0 mi East 8.1 mph - N/A Rain Light Rain
1:00 AM 53.6 °F 50.0 °F 88% 29.98 in 5.0 mi East 9.2 mph - N/A Rain Light Rain
2:00 AM 51.8 °F 50.0 °F 94% 29.98 in 6.2 mi East 5.8 mph - N/A   Scattered Clouds
3:00 AM 51 °F 48 °F 86% 29.99 in 6 mi ENE 6.9 mph - -   Scattered Clouds
3:00 AM 50.0 °F 48.2 °F 94% 29.98 in - ENE 6.9 mph - N/A   Clear
4:00 AM 50.0 °F 46.4 °F 87% 29.98 in - Calm Calm - N/A   Clear
5:00 AM 50.0 °F 48.2 °F 94% 29.98 in - Calm Calm - N/A   Clear
6:00 AM 49 °F 47 °F 88% 30.01 in 6 mi Calm Calm - -   Partly Cloudy
6:00 AM 48.2 °F 46.4 °F 93% 30.01 in - Calm Calm - N/A   Clear
7:00 AM 48.2 °F 46.4 °F 93% 30.01 in 6.2 mi Calm Calm - N/A   Scattered Clouds
8:00 AM 48.2 °F 46.4 °F 93% 30.04 in 6.2 mi Calm Calm - N/A   Partly Cloudy
9:00 AM 52 °F 50 °F 89% 30.08 in 6 mi Calm Calm - -   Partly Cloudy
9:00 AM 51.8 °F 50.0 °F 94% 30.06 in 6.2 mi Calm Calm - N/A   Scattered Clouds
10:00 AM 55.4 °F 51.8 °F 88% 30.09 in 6.2 mi Calm Calm - N/A   Scattered Clouds
11:00 AM 59.0 °F 53.6 °F 82% 30.09 in 6.2 mi Calm Calm - N/A   Scattered Clouds
12:00 PM 63 °F 53 °F 62% 30.09 in 6 mi Calm Calm - -   Scattered Clouds
12:00 PM 62.6 °F 51.8 °F 68% 30.06 in 6.2 mi Calm Calm - N/A   Partly Cloudy
1:00 PM 64.4 °F 51.8 °F 64% 30.06 in 6.2 mi Calm Calm - N/A   Partly Cloudy
2:00 PM 66.2 °F 51.8 °F 60% 30.04 in 6.2 mi Calm Calm - N/A   Partly Cloudy
3:00 PM 66 °F 53 °F 53% 30.05 in 6 mi Calm Calm - -   Partly Cloudy
3:00 PM 66.2 °F 53.6 °F 64% 30.04 in 6.2 mi Calm Calm - N/A   Scattered Clouds
4:00 PM 66.2 °F 51.8 °F 60% 30.06 in 6.2 mi Calm Calm - N/A   Partly Cloudy
5:00 PM 64.4 °F 50.0 °F 59% 30.06 in 6.2 mi West 8.1 mph - N/A   Partly Cloudy
6:00 PM 61 °F 50 °F 59% 30.09 in 6 mi Calm Calm - -   Scattered Clouds
6:00 PM 60.8 °F 50.0 °F 68% 30.06 in - Calm Calm - N/A   Clear
7:00 PM 59.0 °F 50.0 °F 72% 30.09 in - Calm Calm - N/A   Clear
7:45 PM 59.0 °F 51.8 °F 77% 30.12 in 5.0 mi Calm Calm - N/A   Mostly Cloudy
8:00 PM 59.0 °F 53.6 °F 82% 30.12 in 5.0 mi Calm Calm - N/A   Mostly Cloudy
9:00 PM 58 °F 54 °F 83% 30.16 in 5 mi South 4.6 mph - -   Mostly Cloudy
9:00 PM 59.0 °F 53.6 °F 82% 30.15 in 5.0 mi South 4.6 mph - N/A   Mostly Cloudy
10:00 PM 55.4 °F 51.8 °F 88% 30.18 in 5.0 mi SE 2.3 mph - N/A   Mostly Cloudy
11:00 PM 55.4 °F 51.8 °F 88% 30.18 in 5.0 mi ESE 1.2 mph - N/A   Mostly Cloudy